User: anonymous   Login
Location: Unspecified
(0.0000°N, 0.0000°E)
Time: 05:44:24
(UTC+02:00)
Language:

Cosmos 1125 Rocket - Orbit

View from above orbital plane
View from above orbital plane
View from above satellite
View from above satellite

Ground track
Ground track

The orbit data is extracted from the following two-line orbital elements,

1 11511U 79078B   17290.50042383 -.00000023  00000-0  12555-5 0  9993
2 11511  74.0353  90.4860 0016529 302.8213  57.1348 14.36789564996186
Epoch (UTC): 17 October 2017 12:00:36
Eccentricity: 0.0016529
inclination: 74.0353°
perigee height: 757 km
apogee height: 781 km
right ascension of ascending node: 90.4860°
argument of perigee: 302.8213°
revolutions per day: 14.36789564
mean anomaly at epoch: 57.1348°
orbit number at epoch: 99618

The dashed part of the orbit path shows where the satellite is in the earth's shadow,  

DLR